Location: Bezawada
(16.5136°N, 80.6297°E)
Time: 19:33:28
(UTC+00:00)

Cosmos 1818 - Pass Details

Date: 27 February 2020
Orbit: 778 x 796 km, 65.0° (Epoch: 05 April)

Event Time Altitude Azimuth Distance (km) Brightness Sun altitude
Exits shadow 23:11:59 40° 349° (NNW) 1,145 4.2 -25.8°
Drops below altitude 10° 23:15:39 10° 12° (NNE) 2,349 6.1 -24.9°
Sets 23:18:07 0° 17° (NNE) 3,282 7.0 -24.3°
